[[{"header":{"parameterUnit":"m.s-1","parameterCategory":2,"la1":30.2991,"la2":30.254,"lo1":-89.0895,"lo2":-89.0444,"dy":0.0017,"dx":0.0017,"nx":28,"ny":28,"refTime":"2025-03-21T03:00:00:Z","depth":"0","parameterNumber":2,"parameterNumberName":"U-component_of_CURRENTS"},"data":[0,0,0,0,0,0,0,0,0,0,0,0,0,0,0,0,0,0,0,0,0,0,0,0,0,0,0,0,0,0,0,0,0,0,0,0,0,0,0,0,0,0,0,0,0,0,0,0,0,0,0,0,0,0,0,0,0,0,0.1084,0.1085,0,0.1089,0.1089,0.1088,0.1085,0.1085,0.1085,0.1085,0.1063,0.1063,0.1062,0,0,0,0,0,0,0,0,0,0,0,0,0,0.1058,0.1058,0.1084,0.1085,0.1085,0.1089,0.1089,0.1088,0.1085,0.1085,0.1085,0.1085,0.1064,0.1063,0.1062,0,0,0,0,0,0,0,0,0,0,0,0,0,0.1065,0.1058,0.1084,0.1085,0.1085,0.1089,0.1089,0.1088,0.1085,0.1085,0.1085,0.1085,0.1064,0.1063,0.1062,0.1057,0,0,0.106,0.1059,0,0,0,0,0,0,0,0,0.1064,0.1066,0.1084,0.1085,0.1085,0.1088,0.1071,0.1077,0.1085,0.1083,0.1085,0.1085,0.107,0.1069,0.1068,0.1056,0.1055,0.106,0.1059,0.1059,0.1059,0,0,0,0,0,0,0,0.1064,0.1065,0.1085,0.1085,0.1085,0.1079,0.108,0.1072,0.1075,0.1083,0.1084,0.1086,0.107,0.1069,0.1067,0.1055,0.106,0.1059,0.1058,0.1058,0.1049,0.105,0,0,0,0,0,0,0.1067,0.1065,0.1084,0.1085,0.1076,0.108,0.1081,0.1085,0.1076,0.1075,0.1086,0.1086,0.107,0.1068,0.1066,0.109,0.1059,0.1058,0.1057,0.1049,0.105,0.105,0,0,0,0,0,0,0.1067,0.1069,0.1084,0.1076,0.1078,0.1081,0.1086,0.1086,0.1086,0.1079,0.1077,0.1087,0.107,0.1068,0.1062,0.1088,0.1058,0.1057,0.1049,0.1049,0.105,0.1118,0,0,0,0,0,0,0.1066,0.1069,0.1073,0.1076,0.1078,0.1092,0.1086,0.1086,0.1088,0.1088,0.1079,0.1077,0.107,0.1064,0.1061,0.1086,0.1056,0.1048,0.1049,0.105,0.1115,0.1121,0.1125,0,0,0,0,0,0.1065,0.1075,0.1073,0.1076,0.1084,0.1093,0.1093,0.1094,0.1089,0.1093,0.1084,0.1077,0.1066,0.1063,0.106,0.1086,0.1048,0.1049,0.1049,0.1113,0.112,0.1125,0,0,0,0,0,0,0.1064,0.1076,0.1074,0.1086,0.1091,0.1093,0.1098,0.1095,0.1091,0.1089,0.1078,0.1075,0.1077,0.1067,0.1064,0.1082,0.1057,0.1057,0.1106,0.1112,0.1117,0.1205,0.1055,0,0,0,0,0,0.1066,0.1078,0.1083,0.1093,0.1096,0.1095,0.1098,0.1098,0.1096,0.1094,0.1085,0.1078,0.1077,0.1083,0.107,0.1083,0.1172,0.1096,0.1102,0.1106,0.1174,0.1331,0.1359,0.1052,0.1052,0.1052,0,0,0.1068,0.1077,0.1083,0.1094,0.1096,0.11,0.1097,0.1104,0.1111,0.1092,0.1094,0.1086,0.1079,0.1092,0.1094,0.1091,0.1232,0.1107,0.1111,0.1178,0.1335,0.1366,0.1394,0.1052,0.1052,0.1052,0,0,0.1081,0.1086,0.1099,0.1101,0.1109,0.1107,0.111,0.111,0.1118,0.1114,0.111,0.1146,0.1103,0.1151,0.1157,0.1188,0.1242,0.1144,0.1259,0.1409,0.1438,0.1465,0.1601,0.1639,0.1161,0.1161,0.1161,0,0.1082,0.1101,0.1104,0.1112,0.112,0.111,0.1123,0.1125,0.1123,0.1165,0.1117,0.1172,0.1155,0.125,0.1254,0.121,0.1293,0.1237,0.1424,0.1452,0.1479,0.1612,0.1654,0.1164,0.1164,0.1163,0.1163,0,0.1105,0.1114,0.1121,0.113,0.1136,0.1146,0.1149,0.1165,0.1161,0.1189,0.1265,0.1269,0.1334,0.1309,0.1287,0.1456,0.1452,0.1405,0.1426,0.1516,0.1647,0.169,0.1169,0.1168,0.1167,0.1166,0,0,0.113,0.1137,0.1141,0.1154,0.1149,0.1164,0.1186,0.1242,0.132,0.1314,0.1442,0.1449,0.15,0.1517,0.1515,0.1642,0.187,0.1609,0.1615,0.1776,0.2211,0.2138,0.2177,0.1855,0.1863,0.1869,0.2224,0,0.1151,0.1173,0.1173,0.1197,0.121,0.1219,0.1261,0.1312,0.1363,0.1477,0.1543,0.1636,0.156,0.1623,0.1738,0.1834,0.1988,0.178,0.2076,0.2086,0.2037,0.2226,0.2151,0.2456,0.2266,0.2273,0.2278,0,0.1186,0.1196,0.1223,0.1266,0.1279,0.129,0.1404,0.1445,0.1596,0.1656,0.1785,0.1832,0.2017,0.1931,0.2219,0.2085,0.2183,0.2253,0.2266,0.2224,0.2094,0.2336,0.2541,0.2396,0.2344,0.2339,0.2334,0,0.1226,0.1243,0.1272,0.1276,0.1314,0.1351,0.1385,0.1512,0.1608,0.1806,0.191,0.2103,0.2218,0.238,0.247,0.2387,0.2785,0.2682,0.2728,0.2722,0.2737,0.2719,0.2877,0.2954,0.2954,0.2953,0.2952,0,0.1265,0.1293,0.1292,0.1305,0.1387,0.1395,0.1538,0.1609,0.1774,0.1924,0.2018,0.2176,0.2339,0.2529,0.2609,0.2808,0.2906,0.2841,0.2847,0.2747,0.2727,0.2657,0.26,0.2966,0.2963,0.296,0.2958,0,0.1334,0.1314,0.1366,0.1395,0.1406,0.1478,0.1593,0.172,0.1839,0.2043,0.2113,0.2314,0.2545,0.2688,0.2977,0.2987,0.3111,0.3216,0.3073,0.3054,0.2909,0.2858,0.3037,0.2985,0.3378,0.3379,0.338,0,0.1379,0.141,0.1445,0.1479,0.1491,0.1582,0.1662,0.1762,0.1877,0.2111,0.221,0.247,0.2619,0.2989,0.312,0.3329,0.3188,0.3356,0.3184,0.298,0.293,0.2774,0.2704,0.3241,0.324,0.324,0.324,0,0.1502,0.1516,0.1558,0.1615,0.1668,0.1743,0.1823,0.1896,0.2028,0.2155,0.2328,0.2459,0.2778,0.2945,0.3182,0.3292,0.3188,0.335,0.3221,0.2944,0.272,0.264,0.2899,0.3236,0.3237,0.3237,0.3237,0.3237,0.1626,0.1686,0.1731,0.1788,0.1829,0.1858,0.1897,0.1964,0.2079,0.2193,0.2349,0.248,0.2734,0.3046,0.3124,0.3184,0.3176,0.3122,0.3121,0.3011,0.2834,0.3065,0.3317,0.3318,0.3319,0.3319,0.332,0,0.1789,0.1826,0.1896,0.1925,0.1953,0.1945,0.1985,0.1989,0.2035,0.2155,0.2263,0.2468,0.2647,0.282,0.3004,0.2948,0.2846,0.2894,0.2676,0.2653,0.2963,0.2816,0.287,0.287,0.287,0.287,0.287,0.287,0.1878,0.197,0.1978,0.2023,0.2018,0.2002,0.1986,0.1962,0.1995,0.2051,0.212,0.223,0.248,0.272,0.2736,0.2712,0.2517,0.2465,0.2437,0.262,0.2637,0.2654,0.2498,0.2484,0.2484,0.2018,0.2014,0.2012]},{"header":{"parameterUnit":"m.s-1","parameterCategory":2,"la1":30.2991,"la2":30.254,"lo1":-89.0895,"lo2":-89.0444,"dy":0.0017,"dx":0.0017,"nx":28,"ny":28,"refTime":"2025-03-21T03:00:00:Z","depth":"0","parameterNumber":3,"parameterNumberName":"V-component_of_CURRENTS"},"data":[0,0,0,0,0,0,0,0,0,0,0,0,0,0,0,0,0,0,0,0,0,0,0,0,0,0,0,0,0,0,0,0,0,0,0,0,0,0,0,0,0,0,0,0,0,0,0,0,0,0,0,0,0,0,0,0,0,0,0.0001,0.0001,0,-0.0034,-0.0034,-0.0035,-0.0058,-0.0058,-0.0058,-0.0058,-0.0099,-0.0099,-0.01,0,0,0,0,0,0,0,0,0,0,0,0,0,0.0034,0.0034,0.0001,0.0001,0.0,-0.0034,-0.0034,-0.0035,-0.0058,-0.0058,-0.0058,-0.0058,-0.0098,-0.0099,-0.01,0,0,0,0,0,0,0,0,0,0,0,0,0,0.0012,0.0034,0.0001,-0.0015,-0.0017,-0.0034,-0.0034,-0.0035,-0.0058,-0.0058,-0.0058,-0.0058,-0.0098,-0.0099,-0.0101,-0.0104,0,0,-0.0105,-0.0105,0,0,0,0,0,0,0,0,0.0013,0.0011,-0.0013,-0.0014,-0.0016,-0.0042,-0.0037,-0.0058,-0.0058,-0.0042,-0.0058,-0.0058,-0.008,-0.0083,-0.0089,-0.0106,-0.0108,-0.0105,-0.0106,-0.0106,-0.0107,0,0,0,0,0,0,0,0.0015,0.0012,-0.0013,-0.0013,-0.0015,-0.0026,-0.0029,-0.0041,-0.0059,-0.0044,-0.0045,-0.0049,-0.0081,-0.0087,-0.009,-0.0108,-0.0105,-0.0106,-0.0107,-0.0108,-0.0132,-0.0131,0,0,0,0,0,0,0.002,0.0014,-0.0011,-0.0014,-0.0002,-0.0026,-0.003,-0.0033,-0.0059,-0.0063,-0.0049,-0.005,-0.0085,-0.0088,-0.0091,-0.0087,-0.0106,-0.0108,-0.0108,-0.0132,-0.0132,-0.0131,0,0,0,0,0,0,0.0021,0.0018,-0.001,-0.0001,-0.0005,-0.0026,-0.003,-0.0034,-0.0041,-0.0063,-0.0068,-0.0053,-0.0085,-0.0089,-0.0105,-0.0089,-0.0108,-0.011,-0.0132,-0.0132,-0.0132,-0.0085,0,0,0,0,0,0,0.0022,0.0019,0.0019,-0.0001,-0.0006,-0.0024,-0.003,-0.0034,-0.0043,-0.0045,-0.0068,-0.0072,-0.0086,-0.0103,-0.0107,-0.0091,-0.0111,-0.0132,-0.0132,-0.0132,-0.0086,-0.0083,-0.008,0,0,0,0,0,0.0023,0.0021,0.0019,0.0016,-0.0005,-0.0024,-0.0027,-0.0043,-0.0043,-0.005,-0.0063,-0.0071,-0.0103,-0.0104,-0.0108,-0.0093,-0.0132,-0.0132,-0.0132,-0.0088,-0.0083,-0.008,0,0,0,0,0,0,0.0039,0.0018,0.0016,0.0009,-0.0006,-0.0028,-0.0035,-0.0041,-0.0056,-0.0057,-0.0073,-0.0078,-0.0086,-0.0099,-0.01,-0.01,-0.0117,-0.0118,-0.0083,-0.0079,-0.0075,0.0023,-0.0112,0,0,0,0,0,0.0043,0.0033,0.0016,0.001,0.0003,-0.0013,-0.0021,-0.0032,-0.0048,-0.0054,-0.007,-0.0082,-0.0087,-0.0091,-0.0107,-0.0107,-0.0065,-0.0099,-0.0096,-0.0093,-0.0016,0.0045,0.0062,-0.013,-0.013,-0.013,0,0,0.0048,0.0036,0.003,0.0012,-0.0,-0.0015,-0.0019,-0.0034,-0.0033,-0.0056,-0.0064,-0.0076,-0.0087,-0.0089,-0.0092,-0.0097,-0.0028,-0.0092,-0.0089,-0.0012,0.0047,0.0067,0.0084,-0.013,-0.013,-0.013,0,0,0.0038,0.0041,0.0022,0.0009,-0.0011,-0.0015,-0.0017,-0.0038,-0.0033,-0.0051,-0.0052,-0.0027,-0.0083,-0.0042,-0.004,-0.002,-0.0017,-0.0064,0.0043,0.0099,0.0117,0.0133,0.0171,0.0191,-0.0056,-0.0055,-0.0055,0,0.0044,0.0028,0.0015,-0.0008,0.0002,-0.0014,-0.0014,-0.0022,-0.0043,0.002,-0.0055,-0.0003,-0.0038,0.0057,0.0046,-0.0002,0.0013,0.0025,0.0109,0.0126,0.0143,0.0178,0.02,-0.0053,-0.0053,-0.0054,-0.0054,0,0.0011,0.0007,-0.0002,-0.0025,-0.0019,-0.0022,-0.0022,0.0004,0.0004,0.0034,0.0112,0.0078,0.0147,0.0102,0.0068,0.0182,0.0146,0.01,0.0109,0.0166,0.0197,0.0219,-0.005,-0.0051,-0.0051,-0.0052,0,0,0.0008,-0.0016,-0.002,0.0015,-0.0013,0.0015,0.0034,0.0114,0.023,0.0178,0.0329,0.029,0.0336,0.0347,0.0321,0.0353,0.043,0.0273,0.0274,0.0333,0.054,0.05,0.0519,0.0379,0.0384,0.0388,0.0502,0,-0.0003,-0.0003,-0.0025,0.0015,0.0043,0.0072,0.0129,0.0208,0.0274,0.0407,0.0433,0.0528,0.0405,0.046,0.0473,0.0459,0.0496,0.0405,0.0463,0.0466,0.0442,0.0548,0.0505,0.0603,0.0523,0.0527,0.0529,0,-0.0028,-0.0001,0.0029,0.0142,0.0162,0.0181,0.0386,0.0436,0.0611,0.0677,0.0789,0.0808,0.0892,0.0749,0.079,0.0725,0.0663,0.0618,0.062,0.0609,0.047,0.0539,0.0645,0.0413,0.0563,0.056,0.0558,0,0.004,0.0058,0.0117,0.0131,0.0219,0.0294,0.037,0.0545,0.0691,0.0885,0.1017,0.1092,0.1161,0.1096,0.0974,0.0896,0.0994,0.0876,0.0796,0.079,0.0792,0.0779,0.0717,0.094,0.094,0.0939,0.0939,0,0.0066,0.013,0.0163,0.0203,0.0367,0.0394,0.0626,0.0727,0.0935,0.1156,0.1177,0.1349,0.1247,0.1266,0.1107,0.1037,0.1103,0.0888,0.085,0.0796,0.0783,0.0609,0.0515,0.0944,0.0943,0.0942,0.0941,0,0.0158,0.014,0.0255,0.0355,0.0394,0.0537,0.0758,0.0957,0.1104,0.1386,0.1454,0.1589,0.1605,0.1478,0.1409,0.1245,0.1061,0.1102,0.1036,0.0989,0.0675,0.0587,0.0658,0.0597,0.1067,0.1067,0.1068,0,0.0225,0.0272,0.0387,0.0469,0.0515,0.0708,0.0865,0.1038,0.1234,0.1534,0.1673,0.179,0.1875,0.1764,0.1508,0.1295,0.1105,0.1126,0.0985,0.0724,0.0597,0.0553,0.0492,0.0982,0.0981,0.0981,0.0981,0,0.0414,0.0429,0.0525,0.0651,0.0789,0.0979,0.1176,0.1333,0.1556,0.1768,0.2009,0.2096,0.2011,0.181,0.1525,0.135,0.0994,0.111,0.0878,0.0601,0.0523,0.0421,0.0812,0.0977,0.0977,0.0977,0.0978,0.0978,0.059,0.0689,0.0762,0.0885,0.1025,0.1184,0.1348,0.1539,0.1802,0.2067,0.2181,0.2308,0.2014,0.1625,0.139,0.0897,0.0957,0.0706,0.0645,0.0642,0.0529,0.0912,0.0994,0.0994,0.0995,0.0995,0.0995,0,0.0801,0.0864,0.0993,0.1119,0.1257,0.1287,0.1523,0.1667,0.1905,0.2143,0.2331,0.2239,0.1817,0.1403,0.0773,0.0454,0.0361,0.0281,0.0176,0.0154,0.0517,0.0446,0.0368,0.0368,0.0369,0.0369,0.0369,0.0369,0.0929,0.106,0.1074,0.1277,0.1359,0.1545,0.1655,0.1828,0.1994,0.2233,0.232,0.2386,0.205,0.0895,0.0121,-0.0026,-0.0249,-0.0247,-0.0333,-0.0187,-0.0155,-0.0125,-0.0219,-0.0435,-0.0436,-0.0693,-0.0696,-0.0698]}],[{"header":{"parameterUnit":"m.s-1","parameterCategory":2,"la1":30.2991,"la2":30.254,"lo1":-89.0895,"lo2":-89.0444,"dy":0.0017,"dx":0.0017,"nx":28,"ny":28,"refTime":"2025-03-21T03:00:00:Z","depth":"2","parameterNumber":2,"parameterNumberName":"U-component_of_CURRENTS"},"data":[0,0,0,0,0,0,0,0,0,0,0,0,0,0,0,0,0,0,0,0,0,0,0,0,0,0,0,0,0,0,0,0,0,0,0,0,0,0,0,0,0,0,0,0,0,0,0,0,0,0,0,0,0,0,0,0,0,0,0.1014,0.1014,0,0.102,0.102,0.102,0.102,0.102,0.102,0.102,0.1001,0.1,0.1,0,0,0,0,0,0,0,0,0,0,0,0,0,0.0986,0.0987,0.1014,0.1014,0.1014,0.102,0.102,0.102,0.102,0.102,0.102,0.102,0.1001,0.1,0.1,0,0,0,0,0,0,0,0,0,0,0,0,0,0.0995,0.0987,0.1014,0.1016,0.1016,0.102,0.102,0.102,0.102,0.102,0.102,0.102,0.1001,0.1,0.0999,0.0993,0,0,0.0997,0.0997,0,0,0,0,0,0,0,0,0.0994,0.0995,0.1015,0.1016,0.1016,0.1021,0.1004,0.101,0.102,0.1017,0.102,0.102,0.1006,0.1005,0.1004,0.0992,0.0991,0.0997,0.0996,0.0996,0.0996,0,0,0,0,0,0,0,0.0994,0.0995,0.1015,0.1016,0.1016,0.1012,0.1013,0.1005,0.1009,0.1017,0.1017,0.1021,0.1006,0.1005,0.1003,0.0991,0.0997,0.0996,0.0996,0.0995,0.0984,0.0984,0,0,0,0,0,0,0.0997,0.0995,0.1015,0.1015,0.1007,0.1012,0.1013,0.1018,0.101,0.1009,0.1021,0.1021,0.1006,0.1004,0.1003,0.1018,0.0996,0.0995,0.0995,0.0984,0.0984,0.0984,0,0,0,0,0,0,0.0996,0.0998,0.1014,0.1006,0.1008,0.1013,0.1018,0.1018,0.102,0.1013,0.1012,0.1023,0.1006,0.1004,0.0999,0.1017,0.0995,0.0994,0.0983,0.0984,0.0984,0.1034,0,0,0,0,0,0,0.0995,0.0998,0.1003,0.1006,0.1009,0.1023,0.1018,0.1018,0.1023,0.1023,0.1015,0.1013,0.1006,0.1,0.0998,0.1015,0.0993,0.0983,0.0984,0.0984,0.1032,0.1036,0.1039,0,0,0,0,0,0.0994,0.1004,0.1003,0.1006,0.1015,0.1024,0.1024,0.1027,0.1023,0.1028,0.1019,0.1013,0.1001,0.0999,0.0997,0.1014,0.0983,0.0983,0.0984,0.1031,0.1035,0.1039,0,0,0,0,0,0,0.0992,0.1005,0.1004,0.1016,0.1021,0.1024,0.103,0.1028,0.1026,0.1025,0.1014,0.1011,0.1011,0.1002,0.1001,0.101,0.0992,0.0992,0.1028,0.1032,0.1036,0.1136,0.0993,0,0,0,0,0,0.0994,0.1007,0.1012,0.1022,0.1026,0.1027,0.1031,0.1032,0.103,0.1029,0.1021,0.1014,0.101,0.1013,0.1002,0.1009,0.1063,0.1018,0.1022,0.1025,0.1103,0.1177,0.1197,0.0986,0.0986,0.0986,0,0,0.0996,0.1005,0.1011,0.1023,0.1027,0.1032,0.1029,0.1038,0.1044,0.1027,0.1029,0.102,0.1011,0.1018,0.1019,0.1016,0.1105,0.1026,0.1029,0.1107,0.118,0.1202,0.1221,0.0986,0.0986,0.0986,0,0,0.1009,0.1014,0.1029,0.1031,0.1041,0.1041,0.1044,0.1046,0.1052,0.105,0.1042,0.107,0.1032,0.1066,0.1069,0.1091,0.1114,0.1053,0.1167,0.1235,0.1255,0.1273,0.1345,0.1369,0.1065,0.1065,0.1065,0,0.101,0.1029,0.1033,0.1043,0.1051,0.1044,0.1058,0.1058,0.1058,0.1093,0.1054,0.1104,0.1076,0.1155,0.1157,0.1109,0.1148,0.1147,0.1246,0.1265,0.1283,0.1352,0.1379,0.1067,0.1067,0.1067,0.1067,0,0.1031,0.1043,0.1052,0.1063,0.107,0.108,0.1082,0.1097,0.1095,0.1119,0.1189,0.1186,0.1243,0.1212,0.1189,0.1305,0.129,0.1233,0.1246,0.1309,0.1375,0.1402,0.1071,0.107,0.1069,0.1069,0,0,0.1047,0.1064,0.107,0.1084,0.1083,0.1098,0.1116,0.1165,0.1229,0.1236,0.1348,0.135,0.1399,0.1413,0.1403,0.1471,0.1592,0.1417,0.1419,0.1513,0.1759,0.1552,0.1561,0.1542,0.1548,0.1552,0.1746,0,0.1066,0.1097,0.1099,0.1126,0.114,0.1149,0.1182,0.1227,0.1267,0.1366,0.1431,0.1508,0.1455,0.1505,0.157,0.1585,0.167,0.1548,0.1668,0.1674,0.1501,0.1588,0.1464,0.161,0.1773,0.1777,0.1781,0,0.1093,0.1111,0.1146,0.1187,0.1199,0.1213,0.1307,0.1339,0.1467,0.1517,0.1644,0.1686,0.1825,0.1746,0.1895,0.1813,0.1823,0.1832,0.1837,0.1669,0.1518,0.1577,0.1653,0.1826,0.1822,0.1819,0.1816,0,0.1126,0.115,0.1187,0.1192,0.1231,0.1268,0.1298,0.14,0.1474,0.1644,0.1732,0.1889,0.1964,0.2039,0.2017,0.1983,0.2151,0.209,0.1942,0.1927,0.1867,0.1835,0.2238,0.2238,0.2238,0.2237,0.2236,0,0.1156,0.1186,0.1206,0.1225,0.1294,0.1307,0.1421,0.1481,0.1619,0.1725,0.1828,0.1936,0.2037,0.2107,0.2112,0.2092,0.2222,0.2026,0.1981,0.1868,0.1836,0.2054,0.203,0.2244,0.2243,0.2241,0.224,0,0.1205,0.1207,0.1251,0.1293,0.1311,0.1365,0.1465,0.1563,0.1666,0.1813,0.1875,0.2013,0.2081,0.2138,0.2237,0.2169,0.2192,0.2145,0.1995,0.1927,0.1927,0.1904,0.2089,0.2084,0.2079,0.2075,0.2072,0,0.124,0.127,0.1311,0.1338,0.1357,0.1432,0.1502,0.1594,0.1679,0.1826,0.1896,0.2008,0.2029,0.209,0.2033,0.2039,0.21,0.1906,0.1813,0.1984,0.1922,0.1905,0.1888,0.1774,0.1769,0.1765,0.1761,0,0.1325,0.1339,0.1374,0.1406,0.1456,0.1511,0.1584,0.1634,0.173,0.18,0.1845,0.1866,0.1907,0.1836,0.1799,0.1768,0.1893,0.1808,0.2096,0.1762,0.1683,0.1621,0.1618,0.1722,0.1726,0.1729,0.1731,0.1733,0.1393,0.1398,0.1424,0.1431,0.1505,0.1502,0.1515,0.1568,0.1599,0.1625,0.17,0.1675,0.1697,0.1556,0.1513,0.1491,0.1589,0.1566,0.1584,0.1606,0.1465,0.1375,0.1335,0.1336,0.1338,0.1339,0.134,0,0.139,0.1367,0.1429,0.1391,0.1422,0.148,0.1511,0.1471,0.1406,0.1488,0.1467,0.1297,0.1273,0.1335,0.124,0.1187,0.1217,0.1162,0.1249,0.1286,0.1319,0.1168,0.0958,0.0957,0.0956,0.0955,0,0,0.1373,0.1336,0.1298,0.1258,0.1281,0.1286,0.1265,0.1204,0.1222,0.111,0.1115,0.1219,0.1282,0.1116,0.1077,0.104,0.1158,0.0984,0.1288,0.1429,0.1462,0.1539,0.1343,0,0,0,0,0]},{"header":{"parameterUnit":"m.s-1","parameterCategory":2,"la1":30.2991,"la2":30.254,"lo1":-89.0895,"lo2":-89.0444,"dy":0.0017,"dx":0.0017,"nx":28,"ny":28,"refTime":"2025-03-21T03:00:00:Z","depth":"2","parameterNumber":3,"parameterNumberName":"V-component_of_CURRENTS"},"data":[0,0,0,0,0,0,0,0,0,0,0,0,0,0,0,0,0,0,0,0,0,0,0,0,0,0,0,0,0,0,0,0,0,0,0,0,0,0,0,0,0,0,0,0,0,0,0,0,0,0,0,0,0,0,0,0,0,0,-0.0165,-0.0166,0,-0.0194,-0.0195,-0.0195,-0.0212,-0.0212,-0.0212,-0.0212,-0.0246,-0.0247,-0.0247,0,0,0,0,0,0,0,0,0,0,0,0,0,-0.0133,-0.0133,-0.0165,-0.0166,-0.0166,-0.0194,-0.0195,-0.0195,-0.0212,-0.0212,-0.0212,-0.0212,-0.0245,-0.0246,-0.0247,0,0,0,0,0,0,0,0,0,0,0,0,0,-0.0153,-0.0133,-0.0165,-0.0178,-0.0179,-0.0194,-0.0195,-0.0195,-0.0212,-0.0212,-0.0212,-0.0212,-0.0245,-0.0246,-0.0248,-0.0253,0,0,-0.0251,-0.0252,0,0,0,0,0,0,0,0,-0.0152,-0.0154,-0.0175,-0.0177,-0.0178,-0.02,-0.0196,-0.0215,-0.0212,-0.0199,-0.0212,-0.0212,-0.0231,-0.0233,-0.0238,-0.0255,-0.0256,-0.0252,-0.0252,-0.0253,-0.0253,0,0,0,0,0,0,0,-0.015,-0.0153,-0.0177,-0.0176,-0.0178,-0.0185,-0.0188,-0.0199,-0.0214,-0.02,-0.0202,-0.0205,-0.0232,-0.0237,-0.0239,-0.0257,-0.0251,-0.0253,-0.0253,-0.0254,-0.0284,-0.0284,0,0,0,0,0,0,-0.0146,-0.0151,-0.0176,-0.0178,-0.0165,-0.0185,-0.0189,-0.0193,-0.0214,-0.0217,-0.0205,-0.0206,-0.0235,-0.0238,-0.024,-0.0249,-0.0253,-0.0254,-0.0255,-0.0284,-0.0284,-0.0284,0,0,0,0,0,0,-0.0145,-0.0148,-0.0175,-0.0165,-0.0169,-0.0186,-0.019,-0.0193,-0.0198,-0.0217,-0.0221,-0.0207,-0.0235,-0.0239,-0.0253,-0.0251,-0.0255,-0.0256,-0.0284,-0.0284,-0.0284,-0.0266,0,0,0,0,0,0,-0.0144,-0.0148,-0.0147,-0.0165,-0.0169,-0.0186,-0.019,-0.0194,-0.02,-0.0201,-0.022,-0.0223,-0.0235,-0.0251,-0.0254,-0.0252,-0.0257,-0.0284,-0.0284,-0.0284,-0.0267,-0.0266,-0.0265,0,0,0,0,0,-0.0143,-0.0146,-0.0147,-0.015,-0.0169,-0.0186,-0.0189,-0.0201,-0.02,-0.0205,-0.0216,-0.0223,-0.0254,-0.0252,-0.0256,-0.0254,-0.0284,-0.0284,-0.0284,-0.0267,-0.0266,-0.0265,0,0,0,0,0,0,-0.013,-0.0149,-0.015,-0.0158,-0.017,-0.0189,-0.0195,-0.0199,-0.0211,-0.0211,-0.0225,-0.023,-0.0241,-0.0251,-0.0248,-0.0264,-0.0269,-0.027,-0.0255,-0.0254,-0.0253,-0.0183,-0.0258,0,0,0,0,0,-0.0127,-0.0136,-0.0151,-0.0157,-0.0163,-0.0176,-0.0183,-0.0191,-0.0204,-0.0209,-0.0222,-0.0234,-0.0245,-0.0251,-0.0265,-0.0273,-0.0273,-0.0274,-0.0273,-0.0272,-0.0219,-0.0236,-0.0231,-0.0285,-0.0285,-0.0285,0,0,-0.0124,-0.0134,-0.0139,-0.0155,-0.0165,-0.0178,-0.0181,-0.0192,-0.0195,-0.0211,-0.022,-0.0233,-0.0247,-0.0258,-0.0263,-0.0265,-0.0266,-0.0273,-0.0272,-0.0217,-0.0235,-0.023,-0.0225,-0.0285,-0.0285,-0.0285,0,0,-0.0133,-0.0131,-0.0148,-0.0157,-0.0173,-0.0177,-0.0178,-0.0196,-0.0195,-0.021,-0.0215,-0.0215,-0.025,-0.0242,-0.0246,-0.0244,-0.0262,-0.0264,-0.02,-0.022,-0.0215,-0.021,-0.0239,-0.0237,-0.0263,-0.0263,-0.0263,0,-0.0129,-0.0143,-0.0154,-0.0172,-0.0164,-0.0175,-0.0177,-0.0187,-0.0205,-0.0175,-0.0214,-0.0198,-0.0235,-0.0193,-0.0203,-0.0238,-0.0254,-0.0207,-0.0217,-0.0212,-0.0207,-0.0238,-0.0236,-0.0262,-0.0262,-0.0262,-0.0262,0,-0.0159,-0.0159,-0.0167,-0.0185,-0.0182,-0.0183,-0.0188,-0.0177,-0.0178,-0.0171,-0.0134,-0.0165,-0.0132,-0.0171,-0.0193,-0.0161,-0.0187,-0.0218,-0.0216,-0.02,-0.0235,-0.0233,-0.026,-0.0261,-0.0261,-0.0261,0,0,-0.0173,-0.0182,-0.0185,-0.0161,-0.0176,-0.0162,-0.0156,-0.0119,-0.0066,-0.0095,-0.002,-0.0057,-0.0029,-0.0028,-0.0047,-0.007,-0.0098,-0.0125,-0.0127,-0.0144,-0.0146,-0.0273,-0.0283,-0.0138,-0.0137,-0.0136,-0.0196,0,-0.0184,-0.0179,-0.0194,-0.0168,-0.0145,-0.0131,-0.01,-0.0066,-0.0046,0.0014,0.0023,0.0065,0.001,0.0039,0.0012,-0.0056,-0.0085,-0.0078,-0.0162,-0.0163,-0.0271,-0.0282,-0.0192,-0.0246,-0.0194,-0.0194,-0.0193,0,-0.0211,-0.0184,-0.0155,-0.0083,-0.0072,-0.0063,0.0046,0.0067,0.0141,0.0165,0.0224,0.0229,0.0249,0.0171,0.01,0.0105,0.0002,-0.0075,-0.0081,-0.0185,-0.0285,-0.0246,-0.0245,-0.019,-0.019,-0.0191,-0.0191,0,-0.0164,-0.0151,-0.01,-0.0089,-0.0031,0.0011,0.0054,0.013,0.0201,0.0282,0.0336,0.0363,0.0373,0.0284,0.0113,0.0117,-0.0014,-0.0035,-0.0236,-0.0247,-0.0173,-0.0181,-0.0088,-0.0088,-0.0088,-0.0088,-0.0087,0,-0.0147,-0.0102,-0.0068,-0.0035,0.006,0.0081,0.019,0.0241,0.0344,0.0398,0.0437,0.0453,0.0394,0.0303,0.016,-0.0048,0.0018,-0.0204,-0.0264,-0.0174,-0.0181,-0.0121,-0.0124,-0.009,-0.0089,-0.0089,-0.0088,0,-0.0093,-0.0086,-0.0018,0.0052,0.0082,0.0156,0.0268,0.0353,0.0433,0.0502,0.0536,0.0544,0.0385,0.0281,0.0095,-0.0012,-0.0189,-0.0292,-0.0195,-0.0244,-0.0405,-0.0407,-0.0454,-0.0459,-0.0463,-0.0466,-0.0469,0,-0.0062,-0.0019,0.0054,0.0085,0.0113,0.0215,0.0291,0.0398,0.0439,0.0491,0.0497,0.0435,0.0325,0.0062,-0.0117,-0.033,-0.0368,-0.0412,-0.0387,-0.0385,-0.0439,-0.0434,-0.043,-0.0283,-0.0284,-0.0285,-0.0286,0,0.0024,0.004,0.0089,0.0141,0.0201,0.0283,0.0351,0.0403,0.046,0.0508,0.0446,0.0392,0.0172,-0.0003,-0.0263,-0.0407,-0.0354,-0.0445,-0.044,-0.0239,-0.0238,-0.0288,-0.0285,-0.0294,-0.0293,-0.0292,-0.0292,-0.0292,0.0061,0.0074,0.0102,0.0136,0.0216,0.0247,0.0319,0.036,0.0413,0.046,0.0368,0.0349,0.0176,-0.0112,-0.0335,-0.0492,-0.0512,-0.0526,-0.0515,-0.0505,-0.0509,-0.052,-0.0627,-0.0628,-0.0629,-0.063,-0.0631,0,0.0,-0.0009,0.0074,0.0059,0.0126,0.021,0.0277,0.0335,0.0332,0.0453,0.0439,0.0289,0.0121,-0.0068,-0.0285,-0.0484,-0.0407,-0.055,-0.0373,-0.0366,-0.036,-0.0348,-0.0428,-0.0428,-0.0428,-0.0428,0,0,-0.006,-0.0096,-0.0091,-0.0078,-0.002,0.0086,0.0137,0.0244,0.0352,0.0438,0.0522,0.0538,0.0258,0.0125,-0.0134,-0.0251,-0.025,-0.0276,-0.0416,-0.0167,-0.0157,-0.0332,-0.0308,0,0,0,0,0]}],[{"header":{"parameterUnit":"m.s-1","parameterCategory":2,"la1":30.2991,"la2":30.254,"lo1":-89.0895,"lo2":-89.0444,"dy":0.0017,"dx":0.0017,"nx":28,"ny":28,"refTime":"2025-03-21T03:00:00:Z","depth":"4","parameterNumber":2,"parameterNumberName":"U-component_of_CURRENTS"},"data":[0,0,0,0,0,0,0,0,0,0,0,0,0,0,0,0,0,0,0,0,0,0,0,0,0,0,0,0,0,0,0,0,0,0,0,0,0,0,0,0,0,0,0,0,0,0,0,0,0,0,0,0,0,0,0,0,0,0,0.0251,0.0252,0,0.0305,0.0306,0.0306,0.0384,0.0386,0.0387,0.0389,0.051,0.0512,0.0514,0,0,0,0,0,0,0,0,0,0,0,0,0,0.0205,0.0205,0.0251,0.0252,0.0253,0.0305,0.0306,0.0307,0.0384,0.0386,0.0388,0.0389,0.051,0.0512,0.0514,0,0,0,0,0,0,0,0,0,0,0,0,0,0.0238,0.0205,0.0251,0.0298,0.0303,0.0305,0.0306,0.0307,0.0384,0.0386,0.0388,0.039,0.0509,0.0512,0.0515,0.0491,0,0,0.0524,0.0525,0,0,0,0,0,0,0,0,0.0236,0.024,0.0291,0.0295,0.03,0.0341,0.0334,0.0372,0.0383,0.0353,0.0389,0.0391,0.0459,0.0466,0.047,0.0496,0.0502,0.0524,0.0526,0.0527,0.0528,0,0,0,0,0,0,0,0.0234,0.0238,0.0272,0.0291,0.0297,0.0313,0.032,0.0341,0.0394,0.0355,0.0361,0.0367,0.0462,0.0467,0.0473,0.0504,0.0524,0.0526,0.0528,0.0529,0.0619,0.062,0,0,0,0,0,0,0.0226,0.0235,0.0271,0.0274,0.0273,0.0312,0.032,0.0325,0.0393,0.0405,0.0366,0.0371,0.0461,0.047,0.0478,0.0546,0.0527,0.053,0.0531,0.0619,0.0619,0.062,0,0,0,0,0,0,0.0225,0.0229,0.0268,0.0256,0.0263,0.0311,0.0316,0.0325,0.0352,0.04,0.0413,0.0386,0.0463,0.0474,0.0516,0.0548,0.0531,0.0534,0.0618,0.0619,0.062,0.0622,0,0,0,0,0,0,0.0223,0.0228,0.0229,0.0256,0.0263,0.0277,0.0314,0.0325,0.0351,0.036,0.0421,0.0433,0.0465,0.0512,0.0519,0.0552,0.0536,0.0617,0.0618,0.0619,0.0621,0.0623,0.0625,0,0,0,0,0,0.0221,0.0215,0.0229,0.0233,0.0263,0.0277,0.0282,0.0323,0.035,0.0356,0.0404,0.0432,0.0526,0.0514,0.0523,0.0557,0.0616,0.0618,0.0619,0.0621,0.0623,0.0625,0,0,0,0,0,0,0.0198,0.0223,0.0239,0.0241,0.0261,0.0291,0.0297,0.0325,0.0364,0.0381,0.043,0.0445,0.0499,0.0517,0.0503,0.0586,0.0579,0.0582,0.0577,0.058,0.0581,0.0552,0.0538,0,0,0,0,0,0.019,0.019,0.0219,0.0219,0.0229,0.0264,0.0276,0.0305,0.034,0.0361,0.0405,0.0456,0.0505,0.0533,0.0571,0.0603,0.06,0.0633,0.0635,0.0636,0.0618,0.0647,0.065,0.0625,0.0625,0.0625,0,0,0.0177,0.0192,0.0191,0.0213,0.0232,0.025,0.0277,0.0296,0.0328,0.0366,0.0421,0.046,0.0514,0.0563,0.0589,0.0587,0.064,0.0638,0.0639,0.062,0.0649,0.0651,0.0653,0.0626,0.0625,0.0625,0,0,0.0154,0.0168,0.0165,0.0183,0.0213,0.0239,0.0247,0.0287,0.0323,0.0361,0.0415,0.0456,0.0523,0.0567,0.0599,0.0623,0.0647,0.0658,0.0646,0.0676,0.0678,0.0679,0.0666,0.0666,0.0661,0.0661,0.0661,0,0.0141,0.0151,0.0165,0.0176,0.0203,0.0236,0.0259,0.0287,0.034,0.0375,0.038,0.0484,0.0519,0.0595,0.0606,0.0626,0.0639,0.0637,0.0677,0.0679,0.068,0.0666,0.0667,0.0661,0.0661,0.0661,0.0661,0,0.0125,0.014,0.0139,0.0172,0.0198,0.0217,0.0267,0.0303,0.0346,0.0379,0.0451,0.0485,0.0553,0.0575,0.0596,0.0647,0.0649,0.0675,0.0669,0.0683,0.0667,0.0668,0.0661,0.0661,0.0661,0.0661,0,0,0.0082,0.0123,0.0124,0.0159,0.0207,0.0234,0.0285,0.0348,0.0395,0.0428,0.0487,0.0541,0.0562,0.0596,0.0637,0.0643,0.0653,0.0663,0.0664,0.0641,0.0698,0.0694,0.0694,0.0705,0.0705,0.0706,0.0677,0,0.0074,0.0099,0.0128,0.0176,0.0206,0.0267,0.0316,0.0377,0.0425,0.048,0.0517,0.0578,0.0576,0.0618,0.0626,0.0666,0.0657,0.0656,0.0693,0.0693,0.0683,0.0696,0.0707,0.0677,0.0678,0.0678,0.0678,0,0.0056,0.0084,0.0128,0.0213,0.0233,0.0277,0.0384,0.0428,0.0502,0.0537,0.0586,0.0621,0.0659,0.0643,0.0677,0.0689,0.0681,0.0678,0.0678,0.067,0.069,0.0665,0.0678,0.0678,0.0678,0.0678,0.0678,0,0.0036,0.0092,0.0139,0.0163,0.0252,0.0313,0.0371,0.0453,0.0503,0.0578,0.0609,0.0663,0.0699,0.0706,0.0713,0.0709,0.0724,0.0727,0.0698,0.0696,0.0705,0.0704,0.0715,0.0715,0.0715,0.0715,0.0715,0,0.0029,0.006,0.0142,0.0169,0.0247,0.0318,0.0404,0.0463,0.0542,0.0594,0.0642,0.0684,0.0718,0.0743,0.0728,0.0723,0.0748,0.0681,0.0695,0.0705,0.0704,0.0704,0.0703,0.0714,0.0714,0.0715,0.0715,0,-0.0004,0.0041,0.0097,0.02,0.024,0.03,0.0417,0.0459,0.0544,0.0613,0.0642,0.0712,0.0743,0.0755,0.0765,0.0748,0.0739,0.0724,0.0712,0.0728,0.0672,0.0671,0.0672,0.0672,0.0671,0.0671,0.0671,0,-0.0017,0.0006,0.0103,0.0143,0.0198,0.0292,0.0341,0.0447,0.0493,0.0627,0.0648,0.0715,0.075,0.0742,0.0765,0.0739,0.0727,0.0716,0.0689,0.0657,0.0671,0.067,0.067,0.0671,0.0671,0.0671,0.0671,0,-0.0043,-0.0012,0.0029,0.0101,0.017,0.0236,0.0328,0.0363,0.0485,0.0564,0.0644,0.0685,0.0713,0.0723,0.072,0.0701,0.0729,0.0713,0.0712,0.0686,0.0656,0.0669,0.067,0.067,0.067,0.067,0.067,0,-0.0071,-0.006,-0.001,0.0058,0.0123,0.0175,0.0234,0.0314,0.0383,0.0542,0.057,0.064,0.0708,0.0703,0.0707,0.0695,0.0666,0.064,0.0643,0.0644,0.0654,0.0612,0.0617,0,0,0,0,0,-0.0092,-0.0092,-0.0052,0.0021,0.0076,0.0126,0.0216,0.0276,0.0402,0.0437,0.0514,0.0546,0.0592,0.0627,0.06,0.0668,0.0647,0.0637,0.0612,0.0666,0.0667,0.0685,0,0,0,0,0,0,-0.0105,-0.0092,-0.0078,-0.0029,0.0015,0.0077,0.0132,0.0217,0.0254,0.0385,0.0393,0.0514,0.0532,0.0582,0.0586,0.0597,0.0573,0.0691,0.069,0.0666,0.0666,0.0667,0.0686,0,0,0,0,0]},{"header":{"parameterUnit":"m.s-1","parameterCategory":2,"la1":30.2991,"la2":30.254,"lo1":-89.0895,"lo2":-89.0444,"dy":0.0017,"dx":0.0017,"nx":28,"ny":28,"refTime":"2025-03-21T03:00:00:Z","depth":"4","parameterNumber":3,"parameterNumberName":"V-component_of_CURRENTS"},"data":[0,0,0,0,0,0,0,0,0,0,0,0,0,0,0,0,0,0,0,0,0,0,0,0,0,0,0,0,0,0,0,0,0,0,0,0,0,0,0,0,0,0,0,0,0,0,0,0,0,0,0,0,0,0,0,0,0,0,-0.0046,-0.0046,0,-0.0064,-0.0065,-0.0065,-0.0113,-0.0114,-0.0115,-0.0116,-0.0199,-0.02,-0.0201,0,0,0,0,0,0,0,0,0,0,0,0,0,-0.0043,-0.0043,-0.0046,-0.0046,-0.0046,-0.0064,-0.0065,-0.0065,-0.0113,-0.0114,-0.0115,-0.0117,-0.0198,-0.02,-0.0201,0,0,0,0,0,0,0,0,0,0,0,0,0,-0.0052,-0.0043,-0.0046,-0.0072,-0.0074,-0.0064,-0.0065,-0.0065,-0.0113,-0.0114,-0.0116,-0.0117,-0.0198,-0.02,-0.0202,-0.0185,0,0,-0.0208,-0.0208,0,0,0,0,0,0,0,0,-0.0051,-0.0052,-0.0068,-0.007,-0.0073,-0.0087,-0.0094,-0.0108,-0.0112,-0.0099,-0.0116,-0.0118,-0.0166,-0.017,-0.0171,-0.0189,-0.0192,-0.0208,-0.0209,-0.021,-0.021,0,0,0,0,0,0,0,-0.005,-0.0051,-0.0054,-0.0068,-0.0071,-0.0079,-0.0082,-0.0096,-0.0126,-0.01,-0.0104,-0.0104,-0.0168,-0.0169,-0.0173,-0.0193,-0.0208,-0.0209,-0.0211,-0.0211,-0.0277,-0.0278,0,0,0,0,0,0,-0.0045,-0.0051,-0.0053,-0.0054,-0.0064,-0.0078,-0.0082,-0.0082,-0.0124,-0.0132,-0.0103,-0.0106,-0.0165,-0.0171,-0.0177,-0.021,-0.021,-0.0212,-0.0213,-0.0277,-0.0277,-0.0278,0,0,0,0,0,0,-0.0045,-0.0045,-0.0053,-0.0052,-0.0054,-0.0077,-0.0077,-0.0081,-0.0102,-0.0125,-0.0134,-0.012,-0.0166,-0.0174,-0.0209,-0.0212,-0.0213,-0.0214,-0.0276,-0.0277,-0.0278,-0.0244,0,0,0,0,0,0,-0.0045,-0.0045,-0.005,-0.0052,-0.0054,-0.0038,-0.0075,-0.0081,-0.0098,-0.0103,-0.0143,-0.0151,-0.0168,-0.0206,-0.0211,-0.0214,-0.0216,-0.0275,-0.0276,-0.0277,-0.0244,-0.0244,-0.0243,0,0,0,0,0,-0.0045,-0.003,-0.005,-0.0051,-0.0058,-0.0037,-0.0038,-0.006,-0.0098,-0.0089,-0.0137,-0.0151,-0.0217,-0.0208,-0.0213,-0.0218,-0.0275,-0.0276,-0.0277,-0.0245,-0.0244,-0.0243,0,0,0,0,0,0,-0.0037,-0.0034,-0.0056,-0.0045,-0.0043,-0.0045,-0.004,-0.0066,-0.0096,-0.0114,-0.0154,-0.0164,-0.0198,-0.0214,-0.0203,-0.0242,-0.0249,-0.0252,-0.0222,-0.0222,-0.0221,-0.0236,-0.0217,0,0,0,0,0,-0.0037,-0.0023,-0.0027,-0.002,-0.0017,-0.0037,-0.0039,-0.0053,-0.0075,-0.009,-0.012,-0.0163,-0.0202,-0.0218,-0.0244,-0.0258,-0.0289,-0.0268,-0.0267,-0.0266,-0.0284,-0.0342,-0.0348,-0.0282,-0.0282,-0.0282,0,0,-0.0032,-0.003,-0.0024,-0.0018,-0.0021,0.0006,-0.0041,-0.0035,-0.003,-0.0094,-0.0106,-0.016,-0.0208,-0.023,-0.0246,-0.0246,-0.0295,-0.0268,-0.0267,-0.0285,-0.0344,-0.0351,-0.0356,-0.0283,-0.0283,-0.0283,0,0,0.001,-0.0014,0.0021,0.003,0.0032,0.0027,0.0026,0.0017,-0.0008,-0.0019,-0.0085,-0.0149,-0.0171,-0.0224,-0.0253,-0.0265,-0.0292,-0.027,-0.0272,-0.0328,-0.0334,-0.034,-0.0355,-0.0363,-0.0264,-0.0264,-0.0264,0,0.001,0.0042,0.0033,0.0072,0.0066,0.0039,0.0061,0.0058,0.0033,-0.0023,-0.0014,-0.0144,-0.0169,-0.0258,-0.0258,-0.0263,-0.029,-0.0267,-0.0327,-0.0333,-0.034,-0.0355,-0.0364,-0.0263,-0.0263,-0.0263,-0.0263,0,0.0091,0.0102,0.0124,0.0155,0.0156,0.0171,0.016,0.0133,0.0091,0.0054,-0.0046,-0.0096,-0.0196,-0.0199,-0.0225,-0.0304,-0.0305,-0.032,-0.0326,-0.0344,-0.0358,-0.0368,-0.0261,-0.0261,-0.0262,-0.0262,0,0,0.0116,0.0166,0.017,0.0159,0.0184,0.0177,0.0181,0.0132,0.0065,0.0046,-0.0052,-0.0111,-0.0195,-0.0235,-0.0293,-0.0327,-0.037,-0.0339,-0.0342,-0.0348,-0.0472,-0.0375,-0.0376,-0.04,-0.0402,-0.0404,-0.0451,0,0.0165,0.0223,0.0241,0.0258,0.0263,0.0222,0.0209,0.0152,0.0092,0.0005,-0.0087,-0.018,-0.0188,-0.0265,-0.0301,-0.0376,-0.0401,-0.0355,-0.046,-0.0463,-0.037,-0.0386,-0.0411,-0.0458,-0.0461,-0.0462,-0.0464,0,0.0231,0.0243,0.0274,0.0231,0.0225,0.0229,0.0113,0.0098,-0.0016,-0.0076,-0.0188,-0.0256,-0.0354,-0.0337,-0.0451,-0.0426,-0.045,-0.0472,-0.0476,-0.0411,-0.0385,-0.0447,-0.0482,-0.048,-0.0479,-0.0478,-0.0477,0,0.0206,0.0247,0.0246,0.0248,0.0227,0.0179,0.0139,0.0039,-0.0014,-0.0156,-0.0207,-0.0341,-0.0402,-0.047,-0.0488,-0.0498,-0.0567,-0.0592,-0.052,-0.0512,-0.0601,-0.0595,-0.0658,-0.0658,-0.0658,-0.0658,-0.0658,0,0.0222,0.0208,0.0222,0.0211,0.0147,0.0134,0.0037,-0.0034,-0.0117,-0.0161,-0.0271,-0.0299,-0.0436,-0.0473,-0.051,-0.052,-0.0587,-0.0528,-0.0528,-0.058,-0.0571,-0.0606,-0.0599,-0.0659,-0.0659,-0.0659,-0.0658,0,0.0169,0.0207,0.0181,0.0153,0.0135,0.0066,-0.0001,-0.0049,-0.0135,-0.0187,-0.0224,-0.0297,-0.0336,-0.0418,-0.0508,-0.0525,-0.0563,-0.054,-0.0553,-0.0551,-0.0474,-0.0466,-0.0522,-0.052,-0.0517,-0.0515,-0.0514,0,0.0137,0.0134,0.0116,0.0111,0.009,0.0016,-0.0008,-0.0079,-0.0084,-0.0137,-0.0123,-0.0192,-0.0228,-0.0282,-0.0373,-0.0462,-0.0453,-0.0497,-0.053,-0.0471,-0.0466,-0.0461,-0.0456,-0.051,-0.0509,-0.0508,-0.0508,0,0.005,0.0058,0.0039,0.0066,0.0051,0.0036,0.0016,0.0009,-0.0014,-0.0085,-0.004,-0.0095,-0.0118,-0.0207,-0.0267,-0.0321,-0.0503,-0.0473,-0.048,-0.0512,-0.0457,-0.0453,-0.045,-0.0499,-0.0501,-0.0501,-0.0502,0,-0.003,-0.0034,0.0013,0.0022,0.0036,0.0105,0.0058,0.0105,0.0087,0.0054,0.0091,0.0025,-0.0041,-0.0124,-0.016,-0.023,-0.0269,-0.0322,-0.0338,-0.0348,-0.0278,-0.0182,-0.0145,0,0,0,0,0,-0.0073,-0.0016,-0.0007,0.0052,0.0079,0.0111,0.0137,0.012,0.0106,0.0154,0.0118,0.0112,0.0027,-0.0013,-0.0064,-0.0125,-0.0285,-0.0189,-0.0354,-0.0453,-0.0463,-0.0401,0,0,0,0,0,0,-0.008,-0.0051,0.0007,0.0106,0.015,0.0215,0.0235,0.022,0.0249,0.0205,0.017,0.0097,0.0021,0.0059,-0.0065,-0.0089,-0.02,-0.025,-0.0251,-0.0448,-0.0457,-0.0464,-0.0404,0,0,0,0,0]}]]